When you browse on this site, cookies collect data to enhance your experience and personalize the content and advertising you see.
Visit our Privacy Policy to learn more. By continuing to use the site, you agree to this use of cookies and data.
  • In Sweden
  • List of Countries
  • For 7 days
  • Water Temperature
  • Weather Map
  • Weather Widgets
  • user-avatar
    Login

    Hourly Weather Agordo

    Today, 5 June, Friday

    Time Temperature Precipitation Wind Pressure Humidity
    00:00 +5°C° 5.3 mm 1 mps 596 mmHg 98%
    01:00 +5°C° 5.3 mm 1 mps 596 mmHg 98%
    02:00 +5°C° 1.2 mm 1 mps 595 mmHg 97%
    03:00 +3°C° 1.2 mm 2 mps 595 mmHg 96%
    04:00 +3°C° 1.2 mm 2 mps 595 mmHg 96%
    05:00 +3°C° 1.7 mm 2 mps 595 mmHg 96%
    06:00 +3°C° 1.7 mm 2 mps 595 mmHg 95%
    07:00 +3°C° 1.7 mm 2 mps 596 mmHg 95%
    08:00 +3°C° 0.3 mm 2 mps 596 mmHg 93%
    09:00 +4°C° 0.3 mm 2 mps 597 mmHg 90%
    10:00 +5°C° 0.3 mm 2 mps 597 mmHg 88%
    11:00 +6°C° 0.4 mm 1 mps 597 mmHg 87%
    12:00 +6°C° 0.4 mm 1 mps 598 mmHg 87%
    13:00 +7°C° 0.4 mm 1 mps 598 mmHg 86%
    14:00 +8°C° 0.1 mm 1 mps 598 mmHg 82%
    15:00 +9°C° 0.1 mm 1 mps 599 mmHg 78%
    16:00 +10°C° 0.1 mm 1 mps 600 mmHg 73%
    17:00 +9°C° 0.1 mm 1 mps 600 mmHg 79%
    18:00 +9°C° 0.1 mm 1 mps 600 mmHg 84%
    19:00 +8°C° 0.1 mm 1 mps 600 mmHg 90%
    20:00 +7°C° 0 mm 1 mps 600 mmHg 92%
    21:00 +6°C° 0 mm 1 mps 600 mmHg 94%
    22:00 +4°C° 0 mm 0 mps 601 mmHg 96%
    23:00 +4°C° 0 mm 0 mps 601 mmHg 96%

    Tomorrow, 6 June, Saturday

    Time Temperature Precipitation Wind Pressure Humidity
    00:00 +4°C° 0 mm 0 mps 601 mmHg 95%
    01:00 +4°C° 0 mm 0 mps 601 mmHg 95%
    02:00 +4°C° 0 mm 0 mps 601 mmHg 95%
    03:00 +5°C° 0 mm 1 mps 601 mmHg 95%
    04:00 +5°C° 0 mm 1 mps 601 mmHg 95%
    05:00 +6°C° 0 mm 1 mps 602 mmHg 93%
    06:00 +7°C° 0 mm 1 mps 602 mmHg 91%
    07:00 +8°C° 0 mm 1 mps 603 mmHg 88%
    08:00 +9°C° 0.2 mm 1 mps 603 mmHg 85%
    09:00 +10°C° 0.2 mm 1 mps 604 mmHg 82%
    10:00 +11°C° 0.2 mm 1 mps 604 mmHg 79%
    11:00 +11°C° 0.4 mm 1 mps 604 mmHg 79%
    12:00 +12°C° 0.4 mm 2 mps 604 mmHg 79%
    13:00 +12°C° 0.4 mm 2 mps 604 mmHg 78%
    14:00 +12°C° 0.8 mm 2 mps 604 mmHg 82%
    15:00 +10°C° 0.8 mm 2 mps 604 mmHg 86%
    16:00 +10°C° 0.8 mm 2 mps 603 mmHg 90%
    17:00 +10°C° 0.6 mm 1 mps 603 mmHg 93%
    18:00 +10°C° 0.6 mm 1 mps 603 mmHg 95%
    19:00 +9°C° 0.6 mm 1 mps 603 mmHg 97%
    20:00 +8°C° 0.2 mm 1 mps 603 mmHg 97%
    21:00 +8°C° 0.2 mm 1 mps 603 mmHg 97%
    22:00 +6°C° 0.2 mm 0 mps 603 mmHg 97%
    23:00 +6°C° 0.1 mm 0 mps 603 mmHg 97%

    Day after tomorrow, 7 June, Sunday

    Time Temperature Precipitation Wind Pressure Humidity
    00:00 +6°C° 0.1 mm 0 mps 603 mmHg 97%
    01:00 +6°C° 0.1 mm 0 mps 603 mmHg 97%
    02:00 +6°C° 0.1 mm 0 mps 603 mmHg 97%
    03:00 +6°C° 0.1 mm 0 mps 602 mmHg 98%
    04:00 +6°C° 0.1 mm 0 mps 602 mmHg 98%
    05:00 +7°C° 0.3 mm 1 mps 603 mmHg 98%
    06:00 +8°C° 0.3 mm 1 mps 603 mmHg 98%
    07:00 +8°C° 0.3 mm 1 mps 603 mmHg 98%
    08:00 +8°C° 0.4 mm 1 mps 603 mmHg 97%
    09:00 +9°C° 0.4 mm 1 mps 604 mmHg 96%
    10:00 +9°C° 0.4 mm 1 mps 604 mmHg 96%
    11:00 +9°C° 1 mm 1 mps 604 mmHg 95%
    12:00 +10°C° 1 mm 1 mps 605 mmHg 94%
    13:00 +10°C° 1 mm 2 mps 605 mmHg 93%
    14:00 +10°C° 3.9 mm 1 mps 604 mmHg 95%
    15:00 +9°C° 3.9 mm 1 mps 604 mmHg 96%
    16:00 +8°C° 3.9 mm 1 mps 604 mmHg 98%
    17:00 +8°C° 4.4 mm 1 mps 604 mmHg 98%
    18:00 +8°C° 4.4 mm 1 mps 604 mmHg 98%
    19:00 +7°C° 4.4 mm 1 mps 604 mmHg 97%
    20:00 +7°C° 0.5 mm 1 mps 604 mmHg 98%
    21:00 +7°C° 0.5 mm 1 mps 604 mmHg 98%
    22:00 +7°C° 0.5 mm 1 mps 604 mmHg 98%
    23:00 +7°C° 0.8 mm 1 mps 604 mmHg 98%

    8 June, Monday

    Time Temperature Precipitation Wind Pressure Humidity
    00:00 +7°C° 0.8 mm 1 mps 604 mmHg 98%
    01:00 +6°C° 0.8 mm 1 mps 603 mmHg 98%
    02:00 +6°C° 1.1 mm 1 mps 603 mmHg 98%
    03:00 +6°C° 1.1 mm 1 mps 603 mmHg 98%
    04:00 +6°C° 1.1 mm 1 mps 603 mmHg 98%
    05:00 +7°C° 0.6 mm 1 mps 603 mmHg 97%
    06:00 +7°C° 0.6 mm 0 mps 604 mmHg 96%
    07:00 +7°C° 0.6 mm 0 mps 604 mmHg 94%
    08:00 +8°C° 0.9 mm 1 mps 604 mmHg 94%
    09:00 +9°C° 0.9 mm 1 mps 604 mmHg 94%
    10:00 +9°C° 0.9 mm 1 mps 605 mmHg 94%
    11:00 +9°C° 1 mm 1 mps 605 mmHg 93%
    12:00 +9°C° 1 mm 1 mps 605 mmHg 93%
    13:00 +10°C° 1 mm 1 mps 605 mmHg 92%
    14:00 +9°C° 2 mm 1 mps 605 mmHg 94%
    15:00 +9°C° 2 mm 1 mps 604 mmHg 95%
    16:00 +7°C° 2 mm 0 mps 604 mmHg 97%
    17:00 +7°C° 0.9 mm 0 mps 604 mmHg 97%
    18:00 +7°C° 0.9 mm 0 mps 604 mmHg 97%
    19:00 +7°C° 0.9 mm 0 mps 604 mmHg 98%
    20:00 +6°C° 1.1 mm 0 mps 604 mmHg 97%
    21:00 +6°C° 1.1 mm 0 mps 604 mmHg 97%
    22:00 +6°C° 1.1 mm 0 mps 604 mmHg 97%
    23:00 +6°C° 0.3 mm 1 mps 604 mmHg 97%

    9 June, Tuesday

    Time Temperature Precipitation Wind Pressure Humidity
    00:00 +6°C° 0.3 mm 1 mps 604 mmHg 96%
    01:00 +6°C° 0.3 mm 1 mps 604 mmHg 96%
    02:00 +6°C° 0.2 mm 1 mps 604 mmHg 96%
    03:00 +6°C° 0.2 mm 1 mps 604 mmHg 95%
    04:00 +6°C° 0.2 mm 1 mps 604 mmHg 95%
    05:00 +6°C° 0.4 mm 1 mps 604 mmHg 94%
    06:00 +7°C° 0.4 mm 1 mps 605 mmHg 94%
    07:00 +7°C° 0.4 mm 1 mps 605 mmHg 93%
    08:00 +8°C° 0.7 mm 1 mps 606 mmHg 92%
    09:00 +8°C° 0.7 mm 1 mps 606 mmHg 90%
    10:00 +9°C° 0.7 mm 1 mps 606 mmHg 89%
    11:00 +10°C° 1.5 mm 1 mps 607 mmHg 88%
    12:00 +10°C° 1.5 mm 1 mps 607 mmHg 87%
    13:00 +11°C° 1.5 mm 1 mps 607 mmHg 85%
    14:00 +11°C° 1.4 mm 1 mps 607 mmHg 86%
    15:00 +11°C° 1.4 mm 1 mps 607 mmHg 86%
    16:00 +11°C° 1.4 mm 1 mps 607 mmHg 86%
    17:00 +10°C° 1.2 mm 1 mps 607 mmHg 89%
    18:00 +9°C° 1.2 mm 1 mps 607 mmHg 91%
    19:00 +8°C° 1.2 mm 0 mps 606 mmHg 94%
    20:00 +7°C° 0.6 mm 0 mps 606 mmHg 94%
    21:00 +7°C° 0.6 mm 1 mps 606 mmHg 94%
    22:00 +6°C° 0.6 mm 1 mps 606 mmHg 94%
    23:00 +6°C° 0.3 mm 1 mps 606 mmHg 94%

    10 June, Wednesday

    Time Temperature Precipitation Wind Pressure Humidity
    00:00 +5°C° 0.3 mm 1 mps 606 mmHg 94%
    01:00 +5°C° 0.3 mm 1 mps 606 mmHg 94%
    02:00 +5°C° 0.1 mm 1 mps 606 mmHg 94%
    03:00 +5°C° 0.1 mm 1 mps 606 mmHg 94%
    04:00 +5°C° 0.1 mm 1 mps 606 mmHg 94%
    05:00 +6°C° 0.1 mm 1 mps 607 mmHg 92%
    06:00 +7°C° 0.1 mm 1 mps 607 mmHg 90%
    07:00 +7°C° 0.1 mm 0 mps 608 mmHg 88%
    08:00 +9°C° 0.8 mm 1 mps 609 mmHg 86%
    09:00 +10°C° 0.8 mm 1 mps 609 mmHg 83%
    10:00 +11°C° 0.8 mm 1 mps 610 mmHg 81%
    11:00 +11°C° 1.4 mm 1 mps 609 mmHg 82%
    12:00 +11°C° 1.4 mm 1 mps 609 mmHg 84%
    13:00 +11°C° 1.4 mm 1 mps 609 mmHg 85%
    14:00 +11°C° 1.2 mm 1 mps 609 mmHg 86%
    15:00 +11°C° 1.2 mm 1 mps 609 mmHg 86%
    16:00 +11°C° 1.2 mm 1 mps 609 mmHg 86%
    17:00 +10°C° 0.6 mm 1 mps 609 mmHg 89%
    18:00 +9°C° 0.6 mm 0 mps 609 mmHg 92%
    19:00 +8°C° 0.6 mm 0 mps 608 mmHg 94%
    20:00 +7°C° 0.2 mm 0 mps 608 mmHg 94%
    21:00 +7°C° 0.2 mm 1 mps 608 mmHg 94%
    22:00 +6°C° 0.2 mm 1 mps 608 mmHg 95%
    23:00 +5°C° 0 mm 1 mps 608 mmHg 94%
    Show more